Location: Unspecified
(0.0000°N, 0.0000°E)
Time: 14:36:50
(UTC+00:00)

NTS 1 - Pass Details

Date: 16 June 2023
Orbit: 13478 x 13741 km, 124.8° (Epoch: 26 September)

Event Time Altitude Azimuth Distance (km) Brightness Sun altitude
Rises 02:43:10 0° 35° (NE) 18,957 ? -44.2°
Reaches altitude 10° 02:53:53 10° 34° (NE) 17,896 ? -41.9°
Maximum altitude 03:58:11 69° 319° (NW) 14,032 ? -27.9°
Enters shadow 05:02:34 12° 237° (WSW) 17,832 ? -13.3°
